sat.trackr.live / text

‹ back to catalog

STARLINK-11425 [DTC]

NORAD 61943 · 2024-209E

PAYLOAD ACTIVE UNKNOWN

§ Identity

Operator
Country
US
Launch date
2024-11-14
Launch site
AFWTR
Launch vehicle
Mass (kg)
RCS (m²)

Purposes: comms

External: N2YO · Heavens-Above · Gunter

§ Orbital elements

Epoch: 2026-09-21T21:59:12.268608Z

Period
91.74 min
Inclination
53.1580°
Eccentricity
0.0002501
Mean motion
15.69709002 rev/d
Perigee alt
358.0 km
Apogee alt
361.4 km
Semi-major
6,737.9 km
B*
1.3311e-3
RAAN
124.2202°
Arg perigee
26.4206°
Mean anomaly
333.6939°
Rev number
10,749

§ Raw data

STARLINK-11425 [DTC]1 61943U 24209E   26264.91611422  .00163902  00000+0  13311-2 0  99972 61943  53.1580 124.2202 0002501  26.4206 333.6939 15.69709002107494

JSON: /api/v1/satellites/61943 · /tle

For live sub-satellite position, see the globe view (requires WebGL).

§ Visibility from observer

Set your observer location to see the next 7 days of passes ≥ 10°. The values pass through the URL so the page stays shareable.

No JS? Fill the form by hand. The geolocation button needs JavaScript.